Content
SEND FEEDBACK

Daily
Averages
Monthly
Summary
United States of America

TAMUNING, GUAM


Home > North America > United States > Guam
Elevation: 250 feet     Latitude: 13 29N     Longitude: 144 47E

WEATHER
 
SELECT A DAY
Number of Records: 357,336;   Date Range: 1/1/95 - 12/26/14
 
SHARE

PRINT THIS DATA

[ ← Previous Day ]
WEATHER ALMANAC - FEBRUARY 23, 2013
[ Next Day → ]
[ °C ]   °F
Weather ElementAverageHighLow
Temperature78.7 °F82.4 °F (10:20 am)75.2 °F (1:42 am)
Dewpoint72.7 °F75.2 °F (8:21 am)70.2 °F (1:55 pm)
Humidity82 %94 % (8:21 am)67 % (1:55 pm)
Barometer29.87 in29.91 in (8:42 am)29.82 in (3:55 pm)
Wind Speed14.8 mph19.6 mph (8:47 am)
Wind Gust24.2 mph (9:45 pm)
Weather ElementAverage
Visibility9.8 mi
Wind DirectionENE (66 °)

Weather ElementTotal
Precipitation---
Cooling Degree Days13.8 (Base 65)
Growing Degree Days28.8 (Base 50)
Averaged from 86 records on February 23, 2013
WEATHER CONDITIONS BREAKOUT
WIND DIRECTION BREAKOUT
WEATHER BY HOUR - FEBRUARY 23, 2013
[ °C ]   °F
Local TimeTemperatureDewpointHumidityBarometerVisibilityWind DirectionWind SpeedGust SpeedPrecipitationEventsConditions
12:15 AM77.0 °F73.4 °F89 %29.88 in10.0 miEast (80°)15.0 mphScattered Clouds
12:17 AM77.0 °F73.4 °F89 %29.88 in10.0 miEast (80°)16.1 mphMostly Cloudy
12:19 AM77.0 °F73.4 °F89 %29.88 in10.0 miENE (70°)16.1 mphScattered Clouds
12:21 AM77.0 °F73.4 °F89 %29.88 in10.0 miEast (80°)13.8 mphMostly Cloudy
12:24 AM77.0 °F73.4 °F89 %29.88 in10.0 miEast (80°)16.1 mphScattered Clouds
12:36 AM77.0 °F73.4 °F89 %29.88 in10.0 miENE (60°)12.7 mphMostly Cloudy
12:37 AM77.0 °F73.4 °F89 %29.88 in10.0 miENE (60°)11.5 mphMostly Cloudy
12:49 AM77.0 °F73.4 °F89 %29.88 in10.0 miENE (60°)11.5 mphMostly Cloudy
12:55 AM77.2 °F73.2 °F88 %29.87 in10.0 miENE (70°)11.5 mphMostly Cloudy
12:59 AM77.0 °F73.4 °F89 %29.87 in10.0 miENE (70°)13.8 mphMostly Cloudy
1:14 AM77.0 °F73.4 °F89 %29.86 in10.0 miENE (60°)12.7 mphRainLight Rain
1:23 AM77.0 °F73.4 °F89 %29.86 in10.0 miENE (70°)16.1 mph21.9 mphMostly Cloudy
1:27 AM77.0 °F73.4 °F89 %29.86 in10.0 miENE (70°)16.1 mphScattered Clouds
1:35 AM77.0 °F73.4 °F89 %29.86 in10.0 miEast (80°)16.1 mphMostly Cloudy
1:40 AM77.0 °F71.6 °F83 %29.86 in6.0 miEast (80°)17.3 mphRainLight Rain
1:42 AM75.2 °F71.6 °F89 %29.86 in5.0 miEast (90°)16.1 mphRainRain
1:50 AM75.2 °F71.6 °F89 %29.86 in5.0 miEast (80°)11.5 mphRainLight Rain
1:54 AM75.2 °F71.6 °F89 %29.86 in9.0 miENE (70°)10.4 mphMostly Cloudy
1:55 AM75.2 °F72.1 °F90 %29.86 in10.0 miENE (70°)9.2 mph0.00 inMostly Cloudy
2:55 AM76.3 °F73.6 °F91 %29.84 in10.0 miENE (60°)12.7 mphScattered Clouds
3:03 AM77.0 °F73.4 °F89 %29.84 in10.0 miENE (60°)10.4 mphMostly Cloudy
3:18 AM77.0 °F73.4 °F89 %29.83 in10.0 miENE (70°)15.0 mphMostly Cloudy
3:55 AM76.1 °F72.9 °F90 %29.83 in10.0 miENE (70°)11.5 mphMostly Cloudy
4:01 AM77.0 °F73.4 °F89 %29.83 in10.0 miENE (60°)11.5 mphMostly Cloudy
4:07 AM77.0 °F73.4 °F89 %29.83 in10.0 miENE (70°)13.8 mphMostly Cloudy
4:08 AM77.0 °F73.4 °F89 %29.83 in10.0 miENE (60°)12.7 mphScattered Clouds
4:24 AM75.2 °F71.6 °F89 %29.83 in10.0 miENE (70°)11.5 mphMostly Cloudy
4:55 AM76.1 °F72.1 °F87 %29.83 in10.0 miENE (60°)12.7 mphScattered Clouds
5:33 AM77.0 °F73.4 °F89 %29.84 in10.0 miNE (50°)12.7 mphMostly Cloudy
5:43 AM77.0 °F73.4 °F89 %29.84 in10.0 miENE (60°)15.0 mphMostly Cloudy
5:55 AM76.5 °F72.0 °F86 %29.85 in10.0 miENE (60°)15.0 mphMostly Cloudy
6:55 AM76.6 °F72.0 °F85 %29.87 in10.0 miENE (70°)10.4 mphMostly Cloudy
6:56 AM77.0 °F71.6 °F83 %29.87 in10.0 miENE (70°)10.4 mphMostly Cloudy
7:23 AM77.0 °F71.6 °F83 %29.88 in10.0 miEast (80°)15.0 mphMostly Cloudy
7:24 AM77.0 °F71.6 °F83 %29.88 in10.0 miEast (80°)13.8 mphMostly Cloudy
7:55 AM77.7 °F71.4 °F81 %29.89 in10.0 miENE (70°)10.4 mphOvercast
8:07 AM77.0 °F71.6 °F83 %29.89 in6.0 miENE (70°)15.0 mphRainLight Rain
8:21 AM77.0 °F75.2 °F94 %29.90 in10.0 miENE (70°)15.0 mphMostly Cloudy
8:32 AM77.0 °F73.4 °F89 %29.90 in10.0 miENE (70°)13.8 mphScattered Clouds
8:35 AM77.0 °F73.4 °F89 %29.90 in10.0 miEast (80°)13.8 mphMostly Cloudy
8:42 AM78.8 °F73.4 °F83 %29.91 in10.0 miENE (70°)15.0 mphScattered Clouds
8:43 AM78.8 °F73.4 °F83 %29.90 in10.0 miENE (70°)16.1 mphMostly Cloudy
8:47 AM78.8 °F73.4 °F83 %29.90 in10.0 miENE (70°)19.6 mphScattered Clouds
8:55 AM79.3 °F73.6 °F82 %29.91 in10.0 miENE (70°)19.6 mph0.00 inScattered Clouds
9:55 AM81.5 °F73.2 °F76 %29.91 in10.0 miENE (70°)17.3 mphPartly Cloudy
10:20 AM82.4 °F73.4 °F74 %29.91 in10.0 miENE (70°)16.1 mphMostly Cloudy
10:22 AM82.4 °F73.4 °F74 %29.91 in10.0 miENE (70°)15.0 mphScattered Clouds
10:23 AM80.6 °F73.4 °F79 %29.91 in10.0 miENE (70°)15.0 mphMostly Cloudy
10:55 AM81.3 °F74.5 °F80 %29.89 in10.0 miEast (80°)13.8 mphMostly Cloudy
10:59 AM82.4 °F75.2 °F79 %29.89 in10.0 miENE (70°)15.0 mphMostly Cloudy
11:03 AM82.4 °F73.4 °F74 %29.89 in10.0 miENE (70°)12.7 mphMostly Cloudy
11:06 AM82.4 °F75.2 °F79 %29.89 in10.0 miEast (80°)13.8 mphMostly Cloudy
11:07 AM80.6 °F75.2 °F84 %29.89 in10.0 miEast (80°)12.7 mphMostly Cloudy
11:08 AM80.6 °F73.4 °F79 %29.89 in10.0 miEast (80°)12.7 mphMostly Cloudy
11:38 AM80.6 °F73.4 °F79 %29.88 in10.0 miEast (80°)16.1 mphMostly Cloudy
11:45 AM82.4 °F73.4 °F74 %29.88 in10.0 miEast (80°)16.1 mphMostly Cloudy
11:47 AM82.4 °F73.4 °F74 %29.88 in10.0 miENE (70°)17.3 mphMostly Cloudy
11:51 AM82.4 °F73.4 °F74 %29.88 in10.0 miENE (70°)16.1 mphMostly Cloudy
11:52 AM82.4 °F73.4 °F74 %29.88 in10.0 miENE (70°)16.1 mphMostly Cloudy
11:55 AM81.9 °F72.9 °F74 %29.88 in10.0 miENE (70°)16.1 mphMostly Cloudy
12:27 PM82.4 °F71.6 °F70 %29.86 in10.0 miEast (90°)15.0 mphMostly Cloudy
12:37 PM82.4 °F73.4 °F74 %29.86 in10.0 miENE (60°)12.7 mph20.7 mphMostly Cloudy
12:43 PM82.4 °F71.6 °F70 %29.86 in10.0 miENE (70°)15.0 mphMostly Cloudy
12:55 PM82.4 °F71.6 °F70 %29.86 in10.0 miENE (70°)15.0 mphScattered Clouds
1:55 PM82.2 °F70.2 °F67 %29.85 in10.0 miENE (70°)18.4 mphScattered Clouds
2:55 PM81.9 °F71.6 °F71 %29.83 in10.0 miENE (60°)17.3 mphScattered Clouds
3:55 PM81.3 °F71.4 °F72 %29.82 in10.0 miNE (50°)15.0 mphPartly Cloudy
4:55 PM80.1 °F71.8 °F76 %29.83 in10.0 miENE (60°)17.3 mphScattered Clouds
5:45 PM80.6 °F71.6 °F74 %29.85 in10.0 miNE (40°)15.0 mphMostly Cloudy
5:55 PM79.7 °F71.8 °F77 %29.85 in10.0 miNE (50°)18.4 mphMostly Cloudy
6:27 PM78.8 °F71.6 °F78 %29.86 in10.0 miNE (50°)13.8 mphScattered Clouds
6:42 PM78.8 °F71.6 °F78 %29.86 in10.0 miNE (50°)18.4 mphMostly Cloudy
6:44 PM78.8 °F71.6 °F78 %29.86 in10.0 miNE (50°)16.1 mphScattered Clouds
6:48 PM78.8 °F71.6 °F78 %29.86 in10.0 miNE (50°)16.1 mphMostly Cloudy
6:55 PM78.8 °F72.0 °F79 %29.86 in10.0 miNE (50°)17.3 mphMostly Cloudy
6:58 PM78.8 °F71.6 °F78 %29.86 in10.0 miNE (50°)17.3 mphScattered Clouds
7:10 PM78.8 °F71.6 °F78 %29.86 in10.0 miNE (50°)15.0 mphMostly Cloudy
7:20 PM78.8 °F71.6 °F78 %29.87 in10.0 miNE (50°)16.1 mphScattered Clouds
7:21 PM78.8 °F71.6 °F78 %29.87 in10.0 miNE (40°)18.4 mphMostly Cloudy
7:55 PM78.8 °F71.6 °F78 %29.88 in10.0 miNE (50°)16.1 mphMostly Cloudy
7:56 PM78.8 °F71.6 °F78 %29.88 in10.0 miNE (50°)17.3 mphScattered Clouds
9:45 PM78.8 °F71.6 °F78 %29.91 in10.0 miENE (60°)16.1 mph24.2 mphMostly Cloudy
9:50 PM78.8 °F71.6 °F78 %29.91 in10.0 miNE (50°)18.4 mph24.2 mphScattered Clouds
9:55 PM78.1 °F71.8 °F81 %29.91 in10.0 miNE (50°)17.3 mphScattered Clouds
10:55 PM78.1 °F70.9 °F78 %29.91 in10.0 miNE (50°)18.4 mphPartly Cloudy
11:55 PM77.4 °F71.1 °F81 %29.91 in10.0 miENE (60°)17.3 mphClear
Hourly data recorded from PGUA, located miles away from Tamuning, Guam







STORIES FROM OUR PARTNERS